Date String (YYYY-MM-DD hh:mm:ss) UTC,Instrument flags,Ambient pressure (hPa),Sample flow (lpm),Bypass flow (lpm),Sample temperature (°C),Ambient temperature (°C),ASC tube jacket temperature (°C),LED temperature (°C),Box temperature (°C),Sample RH (%),Span deviation,Mass concentration (μg/m³),Mass concentration (μg/m³),Mass concentration (μg/m³)
DateTimeUTC,F1_M11,P_M11,Q1_M11,Q2_M11,T1_M11,T2_M11,T3_M11,T4_M11,T5_M11,U1_M11,ZSPAN_M11,X2_M11,X0_M11,X1_M11
2021-10-22 07:00:00,,0829.8,4.99,0.00,27.4,26.4,00.0,36.5,29.2,09.5,0000.0,0003.86,0013.80,0002.62
2021-10-22 07:01:00,,0829.7,5.00,0.00,27.4,26.4,00.0,36.5,29.2,09.5,0000.0,0003.89,0013.24,0002.61
2021-10-22 07:02:00,,0829.7,4.99,0.00,27.4,26.4,00.0,36.5,29.1,09.5,0000.0,0003.83,0012.95,0002.59
2021-10-22 07:03:00,,0829.8,5.01,0.00,27.3,26.4,00.0,36.5,29.1,09.6,0000.0,0003.82,0013.32,0002.57
2021-10-22 07:04:00,,0829.7,5.00,0.00,27.3,26.4,00.0,36.5,29.1,09.6,0000.0,0003.78,0013.06,0002.56
2021-10-22 07:05:00,,0829.8,4.99,0.00,27.3,26.4,00.0,36.5,29.1,09.6,0000.0,0003.78,0013.03,0002.56
2021-10-22 07:06:00,,0829.7,5.01,0.00,27.3,26.4,00.0,36.5,29.1,09.6,0000.0,0003.77,0013.28,0002.55
2021-10-22 07:07:00,,0829.7,4.99,0.00,27.3,26.4,00.0,36.5,29.1,09.7,0000.0,0003.74,0013.22,0002.55
2021-10-22 07:08:00,,0829.7,5.00,0.00,27.3,26.4,00.0,36.5,29.0,09.7,0000.0,0003.72,0012.94,0002.54
2021-10-22 07:09:00,,0829.7,5.00,0.00,27.3,26.4,00.0,36.5,29.0,09.7,0000.0,0003.74,0012.66,0002.56
2021-10-22 07:10:00,,0829.7,4.99,0.00,27.3,26.3,00.0,36.4,29.0,09.8,0000.0,0003.74,0012.07,0002.57
2021-10-22 07:11:00,,0829.7,5.00,0.00,27.3,26.3,00.0,36.4,29.0,09.7,0000.0,0003.70,0011.58,0002.57
2021-10-22 07:12:00,,0829.6,5.02,0.00,27.3,26.3,00.0,36.4,29.0,09.7,0000.0,0003.68,0011.27,0002.57
2021-10-22 07:13:00,,0829.6,4.98,0.00,27.3,26.3,00.0,36.4,29.0,09.7,0000.0,0003.68,0011.17,0002.57
2021-10-22 07:14:00,,0829.7,5.00,0.00,27.3,26.3,00.0,36.4,29.1,09.7,0000.0,0003.63,0011.20,0002.56
2021-10-22 07:15:00,,0829.7,5.01,0.00,27.3,26.3,00.0,36.4,29.0,09.7,0000.0,0003.65,0011.58,0002.58
2021-10-22 07:16:00,,0829.6,4.99,0.00,27.3,26.3,00.0,36.4,29.0,09.7,0000.0,0003.67,0011.72,0002.60
2021-10-22 07:17:00,,0829.6,5.00,0.00,27.3,26.3,00.0,36.4,29.0,09.7,0000.0,0003.68,0011.81,0002.61
2021-10-22 07:18:00,,0829.6,5.00,0.00,27.3,26.3,00.0,36.4,29.0,09.8,0000.0,0003.70,0011.77,0002.63
2021-10-22 07:19:00,,0829.5,5.01,0.00,27.3,26.3,00.0,36.4,29.0,09.8,0000.0,0003.70,0011.91,0002.62
2021-10-22 07:20:00,,0829.5,4.99,0.00,27.3,26.3,00.0,36.4,29.0,09.7,0000.0,0003.68,0012.71,0002.62
2021-10-22 07:21:00,,0829.5,5.00,0.00,27.2,26.3,00.0,36.4,29.0,09.7,0000.0,0003.67,0014.17,0002.61
2021-10-22 07:22:00,,0829.5,5.01,0.00,27.2,26.3,00.0,36.4,28.9,09.7,0000.0,0003.67,0014.95,0002.59
2021-10-22 07:23:00,,0829.5,5.00,0.00,27.2,26.2,00.0,36.4,28.9,09.8,0000.0,0003.64,0015.41,0002.57
2021-10-22 07:24:00,,0829.6,5.00,0.00,27.2,26.2,00.0,36.4,28.9,09.8,0000.0,0003.64,0015.16,0002.57
2021-10-22 07:25:00,,0829.6,4.99,0.00,27.2,26.2,00.0,36.4,29.0,09.8,0000.0,0003.70,0014.28,0002.59
2021-10-22 07:26:00,,0829.6,5.00,0.00,27.2,26.2,00.0,36.3,28.9,09.7,0000.0,0003.75,0014.55,0002.59
2021-10-22 07:27:00,,0829.6,5.01,0.00,27.2,26.2,00.0,36.3,28.9,09.6,0000.0,0003.76,0015.33,0002.58
2021-10-22 07:28:00,,0829.5,5.00,0.00,27.2,26.2,00.0,36.3,28.9,09.6,0000.0,0003.78,0015.13,0002.57
2021-10-22 07:29:00,,0829.6,4.99,0.00,27.2,26.2,00.0,36.3,28.9,09.6,0000.0,0003.80,0014.66,0002.58
2021-10-22 07:30:00,,0829.5,5.01,0.00,27.2,26.2,00.0,36.3,28.9,09.6,0000.0,0003.80,0014.69,0002.61
2021-10-22 07:31:00,,0829.6,4.99,0.00,27.1,26.2,00.0,36.3,28.9,09.7,0000.0,0003.80,0014.26,0002.61
2021-10-22 07:32:00,,0829.5,5.01,0.00,27.1,26.2,00.0,36.3,28.9,09.7,0000.0,0003.81,0012.77,0002.61
2021-10-22 07:33:00,,0829.5,5.00,0.00,27.1,26.2,00.0,36.3,28.9,09.6,0000.0,0003.84,0012.42,0002.64
2021-10-22 07:34:00,,0829.5,5.00,0.00,27.1,26.2,00.0,36.3,28.9,09.6,0000.0,0003.87,0012.70,0002.67
2021-10-22 07:35:00,,0829.5,5.00,0.00,27.1,26.2,00.0,36.3,28.9,09.6,0000.0,0003.90,0013.07,0002.68
2021-10-22 07:36:00,,0829.5,5.00,0.00,27.1,26.2,00.0,36.3,28.9,09.5,0000.0,0003.91,0013.39,0002.68
2021-10-22 07:37:00,,0829.5,5.01,0.00,27.1,26.2,00.0,36.3,28.9,09.6,0000.0,0003.84,0012.93,0002.66
2021-10-22 07:38:00,,0829.5,4.99,0.00,27.1,26.2,00.0,36.3,28.9,09.6,0000.0,0003.79,0011.37,0002.66
2021-10-22 07:39:00,,0829.5,5.01,0.00,27.1,26.2,00.0,36.3,28.9,09.5,0000.0,0003.74,0011.26,0002.65
2021-10-22 07:40:00,,0829.5,5.00,0.00,27.1,26.2,00.0,36.3,28.9,09.5,0000.0,0003.72,0011.30,0002.64
2021-10-22 07:41:00,,0829.5,5.02,0.00,27.1,26.2,00.0,36.3,28.9,09.5,0000.0,0003.71,0011.82,0002.63
2021-10-22 07:42:00,,0829.5,5.00,0.00,27.1,26.2,00.0,36.2,28.9,09.6,0000.0,0003.71,0011.71,0002.62
2021-10-22 07:43:00,,0829.5,4.98,0.00,27.1,26.2,00.0,36.2,28.9,09.6,0000.0,0003.69,0012.25,0002.63
2021-10-22 07:44:00,,0829.3,5.01,0.00,27.1,26.2,00.0,36.2,28.9,09.6,0000.0,0003.69,0013.10,0002.62
2021-10-22 07:45:00,,0829.3,4.98,0.00,27.1,26.2,00.0,36.2,28.9,09.6,0000.0,0003.75,0012.76,0002.62
2021-10-22 07:46:00,,0829.4,5.00,0.00,27.1,26.2,00.0,36.2,28.9,09.5,0000.0,0003.73,0012.63,0002.62
2021-10-22 07:47:00,,0829.3,5.00,0.00,27.1,26.2,00.0,36.2,28.8,09.6,0000.0,0003.69,0012.24,0002.63
2021-10-22 07:48:00,,0829.3,5.00,0.00,27.1,26.2,00.0,36.2,28.8,09.6,0000.0,0003.69,0013.82,0002.63
2021-10-22 07:49:00,,0829.2,5.01,0.00,27.1,26.2,00.0,36.2,28.9,09.6,0000.0,0003.73,0014.43,0002.65
2021-10-22 07:50:00,,0829.2,4.99,0.00,27.1,26.2,00.0,36.2,28.9,09.5,0000.0,0003.77,0014.68,0002.67
2021-10-22 07:51:00,,0829.2,5.00,0.00,27.1,26.2,00.0,36.2,28.8,09.6,0000.0,0003.81,0015.55,0002.68
2021-10-22 07:52:00,,0829.2,5.00,0.00,27.1,26.2,00.0,36.2,28.8,09.6,0000.0,0003.85,0014.98,0002.69
2021-10-22 07:53:00,,0829.2,4.99,0.00,27.1,26.2,00.0,36.2,28.8,09.6,0000.0,0003.88,0015.54,0002.71
2021-10-22 07:54:00,,0829.3,5.02,0.00,27.1,26.2,00.0,36.2,28.8,09.6,0000.0,0003.90,0016.56,0002.72
2021-10-22 07:55:00,,0829.3,4.99,0.00,27.1,26.2,00.0,36.2,28.8,09.6,0000.0,0003.92,0016.53,0002.72
2021-10-22 07:56:00,,0829.2,5.01,0.00,27.1,26.1,00.0,36.2,28.8,09.6,0000.0,0003.93,0016.70,0002.72
2021-10-22 07:57:00,,0829.2,5.00,0.00,27.1,26.1,00.0,36.2,28.9,09.6,0000.0,0004.01,0017.32,0002.71
2021-10-22 07:58:00,,0829.3,4.99,0.00,27.1,26.1,00.0,36.2,28.8,09.6,0000.0,0004.08,0018.33,0002.71
2021-10-22 07:59:00,,0829.3,5.00,0.00,27.1,26.1,00.0,36.2,28.8,09.6,0000.0,0004.13,0018.44,0002.72
